| time (UTC) | temp F | wind direction | speed knots | gust knots | rain 1hr in | rain 24hr in | rain mn in | humidity % | barometer mb |
| 20260510144828 | 0 | 0.0 | 0.0 | 0.00 | 0.35 | 0.35 | 1015.0 | ||
| 20260510144327 | 0 | 0.0 | 0.0 | 0.00 | 0.35 | 0.35 | 1015.2 | ||
| 20260510143739 | 0 | 0.0 | 0.0 | 0.00 | 0.35 | 0.35 | 1015.3 | ||
| 20260510143235 | 0 | 0.0 | 0.0 | 0.00 | 0.35 | 0.35 | 1015.3 | ||
| 20260510142730 | 0 | 0.0 | 0.0 | 0.00 | 0.35 | 0.35 | 1015.3 | ||
| 20260510141728 | 0 | 0.0 | 0.0 | 0.00 | 0.35 | 0.35 | 1015.4 | ||
| 20260510141222 | 0 | 0.0 | 0.0 | 0.00 | 0.35 | 0.35 | 1015.2 | ||
| 20260510140633 | 0 | 0.0 | 0.0 | 0.00 | 0.35 | 0.35 | 1015.2 | ||
| 20260510135530 | 0 | 0.0 | 0.0 | 0.02 | 0.35 | 0.35 | 1015.2 | ||
| 20260510135025 | 0 | 0.0 | 0.0 | 0.02 | 0.35 | 0.35 | 1015.4 | ||
| 20260510134526 | 0 | 0.0 | 0.0 | 0.02 | 0.35 | 0.35 | 1015.4 | ||
| 20260510133930 | 0 | 0.0 | 0.0 | 0.02 | 0.35 | 0.35 | 1015.4 | ||
| 20260510132929 | 61 | 331 | 0.0 | 0.0 | 0.03 | 0.35 | 0.35 | 94 | 1015.5 |
| 20260510132423 | 61 | 331 | 0.0 | 0.0 | 0.03 | 0.35 | 0.35 | 94 | 1015.6 |
| 20260510130347 | 61 | 327 | 0.0 | 0.0 | 0.04 | 0.34 | 0.35 | 94 | 1016.0 |
| 20260510125335 | 61 | 327 | 0.0 | 0.0 | 0.04 | 0.33 | 0.33 | 94 | 1016.0 |
| 20260510124830 | 61 | 327 | 0.0 | 0.0 | 0.05 | 0.33 | 0.33 | 94 | 1016.0 |
| 20260510124323 | 61 | 327 | 0.0 | 0.9 | 0.05 | 0.33 | 0.33 | 94 | 1016.2 |
| 20260510123818 | 61 | 327 | 0.0 | 0.9 | 0.05 | 0.32 | 0.32 | 94 | 1016.1 |
| 20260510123311 | 61 | 326 | 0.0 | 0.0 | 0.05 | 0.32 | 0.32 | 94 | 1016.1 |
| 20260510122805 | 61 | 326 | 0.0 | 0.0 | 0.05 | 0.31 | 0.31 | 94 | 1016.2 |
| 20260510121755 | 62 | 326 | 0.0 | 0.0 | 0.05 | 0.31 | 0.31 | 94 | 1016.3 |
| 20260510121247 | 62 | 326 | 0.0 | 0.0 | 0.06 | 0.31 | 0.31 | 94 | 1016.4 |
| 20260510120741 | 61 | 326 | 0.0 | 0.0 | 0.05 | 0.30 | 0.30 | 94 | 1016.4 |
| 20260510120237 | 61 | 327 | 0.0 | 0.0 | 0.06 | 0.30 | 0.30 | 94 | 1016.6 |
| 20260510115729 | 61 | 327 | 0.0 | 0.0 | 0.05 | 0.29 | 0.29 | 94 | 1016.5 |
| 20260510115223 | 61 | 327 | 0.0 | 0.0 | 0.05 | 0.29 | 0.29 | 94 | 1016.6 |
| 20260510114719 | 61 | 326 | 0.0 | 0.0 | 0.05 | 0.28 | 0.28 | 94 | 1016.7 |
| 20260510113705 | 61 | 326 | 0.0 | 0.0 | 0.04 | 0.28 | 0.28 | 94 | 1016.8 |
| 20260510113204 | 61 | 327 | 0.0 | 0.0 | 0.04 | 0.28 | 0.28 | 94 | 1016.7 |
| 20260510112703 | 61 | 326 | 0.0 | 0.0 | 0.04 | 0.28 | 0.27 | 94 | 1016.7 |
| 20260510112204 | 61 | 326 | 0.0 | 0.0 | 0.04 | 0.28 | 0.27 | 94 | 1016.7 |
| 20260510110700 | 61 | 110 | 0.0 | 0.9 | 0.04 | 0.26 | 0.25 | 94 | 1016.9 |
| 20260510110157 | 61 | 110 | 0.0 | 0.0 | 0.03 | 0.25 | 0.24 | 94 | 1017.0 |
| 20260510105659 | 61 | 110 | 0.0 | 0.0 | 0.04 | 0.25 | 0.24 | 94 | 1016.9 |
| 20260510104656 | 61 | 109 | 0.0 | 0.0 | 0.04 | 0.24 | 0.24 | 94 | 1016.9 |
| 20260510104155 | 61 | 109 | 0.0 | 0.0 | 0.05 | 0.24 | 0.24 | 94 | 1016.9 |
| 20260510103656 | 61 | 109 | 0.0 | 0.0 | 0.06 | 0.24 | 0.24 | 94 | 1017.0 |
| 20260510103156 | 61 | 109 | 0.0 | 0.0 | 0.06 | 0.24 | 0.24 | 94 | 1017.0 |
| 20260510102653 | 61 | 109 | 0.0 | 0.0 | 0.05 | 0.24 | 0.23 | 94 | 1016.9 |
| 20260510102149 | 61 | 109 | 0.0 | 0.0 | 0.05 | 0.24 | 0.23 | 94 | 1016.9 |
| 20260510101649 | 60 | 109 | 0.0 | 0.0 | 0.04 | 0.23 | 0.22 | 94 | 1017.0 |
| 20260510101151 | 60 | 109 | 0.0 | 0.0 | 0.04 | 0.23 | 0.22 | 94 | 1017.1 |
| 20260510100649 | 60 | 109 | 0.0 | 0.0 | 0.03 | 0.22 | 0.21 | 94 | 1017.0 |
| 20260510095645 | 60 | 109 | 0.0 | 0.0 | 0.03 | 0.21 | 0.20 | 94 | 1017.0 |
| 20260510095140 | 60 | 112 | 0.0 | 0.0 | 0.02 | 0.20 | 0.20 | 94 | 1016.9 |
| 20260510094639 | 60 | 112 | 0.0 | 0.0 | 0.02 | 0.20 | 0.20 | 94 | 1017.1 |
| 20260510094139 | 60 | 112 | 0.0 | 0.0 | 0.02 | 0.20 | 0.19 | 93 | 1016.8 |
| 20260510093637 | 60 | 112 | 0.0 | 0.0 | 0.01 | 0.19 | 0.18 | 94 | 1016.9 |
| 20260510093135 | 60 | 107 | 0.0 | 0.0 | 0.01 | 0.19 | 0.18 | 94 | 1017.0 |
| 20260510092635 | 60 | 107 | 0.0 | 0.0 | 0.01 | 0.19 | 0.18 | 94 | 1016.9 |
| 20260510092136 | 60 | 107 | 0.0 | 0.0 | 0.01 | 0.19 | 0.18 | 94 | 1016.8 |
| 20260510091635 | 60 | 107 | 0.0 | 0.0 | 0.01 | 0.19 | 0.18 | 94 | 1016.9 |
| 20260510091135 | 60 | 107 | 0.0 | 0.0 | 0.01 | 0.19 | 0.18 | 94 | 1017.0 |
| 20260510090637 | 60 | 107 | 0.0 | 0.9 | 0.01 | 0.19 | 0.18 | 94 | 1017.0 |
| 20260510090133 | 60 | 107 | 0.0 | 0.9 | 0.01 | 0.19 | 0.18 | 94 | 1016.7 |
| 20260510085635 | 60 | 99 | 0.0 | 0.0 | 0.00 | 0.18 | 0.17 | 94 | 1016.6 |
| 20260510085133 | 60 | 99 | 0.0 | 0.0 | 0.00 | 0.18 | 0.17 | 94 | 1016.6 |
| 20260510084633 | 60 | 99 | 0.0 | 0.0 | 0.00 | 0.18 | 0.17 | 94 | 1016.8 |
| 20260510084131 | 60 | 99 | 0.0 | 0.0 | 0.00 | 0.18 | 0.17 | 94 | 1016.7 |
| 20260510083634 | 60 | 99 | 0.0 | 0.0 | 0.00 | 0.18 | 0.17 | 93 | 1016.7 |
| 20260510082629 | 60 | 99 | 0.0 | 0.9 | 0.00 | 0.18 | 0.17 | 94 | 1016.8 |
| 20260510082127 | 60 | 99 | 0.0 | 1.7 | 0.00 | 0.18 | 0.17 | 93 | 1016.7 |
| 20260510081628 | 60 | 99 | 0.0 | 1.7 | 0.00 | 0.18 | 0.17 | 94 | 1016.7 |
| 20260510080625 | 60 | 93 | 0.0 | 1.7 | 0.00 | 0.18 | 0.17 | 94 | 1016.8 |
| 20260510080126 | 60 | 93 | 0.0 | 1.7 | 0.00 | 0.18 | 0.17 | 94 | 1016.8 |
| 20260510075625 | 60 | 104 | 0.0 | 0.0 | 0.00 | 0.18 | 0.17 | 94 | 1016.8 |
| 20260510075124 | 60 | 105 | 0.0 | 0.0 | 0.00 | 0.18 | 0.17 | 94 | 1016.8 |
| 20260510074126 | 60 | 105 | 0.0 | 0.0 | 0.00 | 0.18 | 0.17 | 94 | 1016.9 |
| 20260510073626 | 59 | 105 | 0.0 | 1.7 | 0.00 | 0.18 | 0.17 | 94 | 1016.9 |
| 20260510073121 | 59 | 105 | 0.0 | 1.7 | 0.00 | 0.18 | 0.17 | 94 | 1017.0 |
| 20260510072634 | 60 | 110 | 0.0 | 0.0 | 0.00 | 0.18 | 0.17 | 94 | 1016.9 |
| 20260510071622 | 59 | 110 | 0.0 | 0.0 | 0.00 | 0.18 | 0.17 | 94 | 1017.0 |
| 20260510070625 | 59 | 111 | 0.0 | 2.6 | 0.01 | 0.18 | 0.17 | 94 | 1017.0 |
| 20260510070121 | 59 | 136 | 0.0 | 0.9 | 0.01 | 0.18 | 0.17 | 93 | 1017.1 |
| 20260510065622 | 59 | 136 | 0.0 | 0.9 | 0.02 | 0.18 | 0.17 | 93 | 1017.0 |
| 20260510065119 | 59 | 138 | 0.0 | 0.9 | 0.02 | 0.18 | 0.17 | 94 | 1017.0 |
| 20260510064622 | 59 | 138 | 0.0 | 0.9 | 0.02 | 0.18 | 0.17 | 94 | 1017.1 |
| 20260510064118 | 59 | 139 | 0.0 | 0.0 | 0.03 | 0.18 | 0.17 | 93 | 1017.0 |
| 20260510063622 | 59 | 139 | 0.0 | 0.0 | 0.03 | 0.18 | 0.17 | 94 | 1017.0 |
| 20260510063119 | 58 | 139 | 0.0 | 0.0 | 0.04 | 0.18 | 0.17 | 93 | 1017.1 |
| 20260510062620 | 58 | 139 | 0.0 | 0.0 | 0.05 | 0.18 | 0.17 | 93 | 1017.2 |
| 20260510062119 | 58 | 139 | 0.0 | 0.0 | 0.05 | 0.18 | 0.17 | 93 | 1017.4 |
| 20260510061620 | 58 | 139 | 0.0 | 0.0 | 0.05 | 0.18 | 0.17 | 93 | 1017.4 |
| 20260510060619 | 58 | 139 | 0.0 | 0.0 | 0.04 | 0.17 | 0.17 | 93 | 1017.2 |
| 20260510055620 | 58 | 139 | 0.0 | 0.0 | 0.03 | 0.17 | 0.16 | 93 | 1017.3 |
| 20260510055117 | 58 | 139 | 0.0 | 0.0 | 0.03 | 0.17 | 0.16 | 92 | 1017.4 |
| 20260510054617 | 58 | 139 | 0.0 | 0.0 | 0.02 | 0.16 | 0.15 | 92 | 1017.5 |
| 20260510054117 | 58 | 139 | 0.0 | 0.0 | 0.02 | 0.15 | 0.14 | 92 | 1017.4 |
| 20260510053616 | 58 | 139 | 0.0 | 0.0 | 0.02 | 0.15 | 0.14 | 92 | 1017.6 |
| 20260510051109 | 58 | 138 | 0.0 | 0.0 | 0.01 | 0.13 | 0.13 | 92 | 1017.6 |
| 20260510050605 | 58 | 138 | 0.0 | 0.0 | 0.02 | 0.13 | 0.13 | 92 | 1017.7 |
| 20260510045600 | 58 | 138 | 0.0 | 0.0 | 0.02 | 0.13 | 0.13 | 92 | 1017.6 |
| 20260510045058 | 58 | 189 | 0.0 | 0.0 | 0.03 | 0.13 | 0.13 | 92 | 1017.5 |
| 20260510044557 | 58 | 189 | 0.0 | 0.0 | 0.03 | 0.13 | 0.13 | 91 | 1017.5 |
| 20260510043550 | 58 | 189 | 0.0 | 0.0 | 0.05 | 0.13 | 0.13 | 91 | 1017.4 |
| 20260510042541 | 58 | 189 | 0.0 | 0.9 | 0.06 | 0.13 | 0.13 | 91 | 1017.3 |
| 20260510042045 | 58 | 238 | 0.0 | 0.0 | 0.06 | 0.13 | 0.13 | 91 | 1017.4 |
| 20260510041526 | 58 | 238 | 0.0 | 0.0 | 0.07 | 0.13 | 0.12 | 91 | 1017.4 |
| 20260510041028 | 58 | 238 | 0.0 | 0.0 | 0.08 | 0.13 | 0.12 | 91 | 1017.3 |
| 20260510040526 | 58 | 212 | 0.0 | 0.0 | 0.08 | 0.12 | 0.11 | 90 | 1017.4 |
| 20260510040027 | 58 | 212 | 0.0 | 0.0 | 0.09 | 0.12 | 0.11 | 91 | 1017.4 |
| 20260510035526 | 58 | 212 | 0.0 | 0.0 | 0.09 | 0.11 | 0.10 | 90 | 1017.7 |
| 20260510035026 | 58 | 212 | 0.0 | 0.0 | 0.09 | 0.10 | 0.09 | 90 | 1017.7 |
| 20260510034526 | 58 | 191 | 0.0 | 0.0 | 0.09 | 0.10 | 0.09 | 90 | 1017.8 |
| 20260510034026 | 58 | 191 | 0.0 | 0.0 | 0.09 | 0.09 | 0.09 | 89 | 1017.8 |
| 20260510033526 | 58 | 191 | 0.0 | 2.6 | 0.08 | 0.09 | 0.08 | 89 | 1017.8 |
| 20260510032524 | 59 | 285 | 0.0 | 2.6 | 0.06 | 0.07 | 0.07 | 89 | 1017.6 |
| 20260510032025 | 59 | 134 | 0.0 | 2.6 | 0.06 | 0.06 | 0.06 | 88 | 1017.4 |
| 20260510031525 | 59 | 105 | 0.0 | 0.9 | 0.05 | 0.06 | 0.06 | 88 | 1017.7 |
| 20260510031026 | 59 | 297 | 0.0 | 4.3 | 0.04 | 0.05 | 0.05 | 88 | 1018.2 |
| 20260510030525 | 59 | 295 | 1.7 | 7.8 | 0.03 | 0.04 | 0.03 | 87 | 1018.4 |
| 20260510030025 | 59 | 267 | 3.5 | 8.7 | 0.02 | 0.03 | 0.02 | 86 | 1018.4 |
| 20260510025524 | 60 | 278 | 2.6 | 8.7 | 0.02 | 0.02 | 0.02 | 86 | 1018.3 |
| 20260510025027 | 60 | 288 | 2.6 | 10.4 | 0.01 | 0.02 | 0.01 | 85 | 1018.4 |
| 20260510024524 | 60 | 304 | 2.6 | 11.3 | 0.00 | 0.01 | 0.00 | 86 | 1018.5 |
| 20260510024022 | 59 | 293 | 1.7 | 11.3 | 0.00 | 0.01 | 0.00 | 88 | 1018.7 |
| 20260510023522 | 58 | 277 | 0.9 | 5.2 | 0.00 | 0.01 | 0.00 | 91 | 1018.6 |
| 20260510022520 | 58 | 273 | 0.0 | 2.6 | 0.00 | 0.01 | 0.00 | 91 | 1018.6 |
| 20260510022020 | 58 | 276 | 0.0 | 2.6 | 0.00 | 0.01 | 0.00 | 91 | 1018.6 |
| 20260510021521 | 58 | 295 | 0.0 | 1.7 | 0.00 | 0.01 | 0.00 | 91 | 1018.5 |
| 20260510021020 | 58 | 307 | 0.0 | 3.5 | 0.00 | 0.01 | 0.00 | 91 | 1018.5 |
| 20260510020521 | 58 | 278 | 0.0 | 3.5 | 0.00 | 0.01 | 0.00 | 91 | 1018.4 |
| 20260510020019 | 58 | 212 | 0.0 | 0.9 | 0.00 | 0.01 | 0.00 | 91 | 1018.4 |
| 20260510015018 | 58 | 276 | 0.0 | 3.5 | 0.00 | 0.01 | 0.00 | 91 | 1018.2 |
| 20260510014512 | 58 | 271 | 0.0 | 0.0 | 0.00 | 0.01 | 0.00 | 91 | 1018.3 |
| 20260510014010 | 58 | 271 | 0.0 | 1.7 | 0.00 | 0.01 | 0.00 | 91 | 1018.0 |
| 20260510013510 | 58 | 271 | 0.0 | 1.7 | 0.00 | 0.01 | 0.00 | 91 | 1017.9 |
| 20260510013010 | 58 | 271 | 0.0 | 0.0 | 0.00 | 0.01 | 0.00 | 91 | 1017.9 |
| 20260510012007 | 58 | 271 | 0.0 | 0.0 | 0.00 | 0.01 | 0.00 | 91 | 1017.7 |
| 20260510011507 | 58 | 271 | 0.0 | 0.0 | 0.00 | 0.01 | 0.00 | 91 | 1017.8 |
| 20260510010506 | 58 | 271 | 0.0 | 0.0 | 0.00 | 0.01 | 0.00 | 91 | 1017.8 |
| 20260510010005 | 58 | 271 | 0.0 | 0.0 | 0.00 | 0.01 | 0.00 | 91 | 1017.9 |
| 20260510005504 | 58 | 271 | 0.0 | 0.0 | 0.00 | 0.01 | 0.00 | 91 | 1017.8 |
| 20260510004501 | 58 | 271 | 0.0 | 0.0 | 0.00 | 0.01 | 0.00 | 90 | 1017.7 |
| 20260510004002 | 58 | 271 | 0.0 | 2.6 | 0.00 | 0.01 | 0.00 | 90 | 1017.8 |
| 20260510003500 | 58 | 271 | 0.0 | 2.6 | 0.00 | 0.01 | 0.00 | 90 | 1017.8 |
| 20260510003000 | 58 | 264 | 0.0 | 0.9 | 0.00 | 0.01 | 0.00 | 90 | 1017.8 |
| 20260510002459 | 59 | 277 | 0.0 | 0.0 | 0.00 | 0.01 | 0.00 | 90 | 1017.8 |
| 20260510001956 | 59 | 277 | 0.0 | 0.0 | 0.00 | 0.01 | 0.00 | 89 | 1017.7 |
| 20260510001456 | 59 | 277 | 0.0 | 0.0 | 0.00 | 0.01 | 0.00 | 90 | 1017.7 |
| 20260510000456 | 59 | 277 | 0.0 | 0.0 | 0.00 | 0.01 | 0.00 | 89 | 1017.8 |
| 20260509235956 | 59 | 277 | 0.0 | 0.0 | 0.00 | 0.01 | 0.00 | 89 | 1017.9 |
| 20260509235455 | 60 | 277 | 0.0 | 0.0 | 0.00 | 0.01 | 0.00 | 89 | 1017.9 |
| 20260509234952 | 60 | 277 | 0.0 | 0.0 | 0.00 | 0.01 | 0.00 | 89 | 1018.1 |
| 20260509233948 | 60 | 277 | 0.0 | 0.0 | 0.00 | 0.01 | 0.00 | 89 | 1018.3 |
| 20260509233448 | 60 | 278 | 0.0 | 0.0 | 0.00 | 0.01 | 0.00 | 89 | 1018.3 |
| 20260509232445 | 60 | 278 | 0.0 | 0.0 | 0.00 | 0.01 | 0.00 | 89 | 1018.5 |
| 20260509231942 | 60 | 278 | 0.0 | 0.0 | 0.00 | 0.01 | 0.00 | 89 | 1018.5 |
| 20260509230942 | 60 | 278 | 0.0 | 0.0 | 0.00 | 0.01 | 0.00 | 88 | 1018.6 |
| 20260509230441 | 60 | 277 | 0.0 | 1.7 | 0.00 | 0.01 | 0.00 | 88 | 1018.6 |
| 20260509225938 | 60 | 277 | 0.0 | 2.6 | 0.00 | 0.01 | 0.00 | 88 | 1018.5 |
| 20260509225438 | 60 | 288 | 0.0 | 2.6 | 0.00 | 0.01 | 0.00 | 88 | 1018.5 |
| 20260509224939 | 61 | 276 | 0.0 | 0.0 | 0.00 | 0.01 | 0.00 | 88 | 1018.6 |
| 20260509224438 | 61 | 276 | 0.0 | 0.0 | 0.00 | 0.01 | 0.00 | 88 | 1018.6 |
| 20260509223438 | 61 | 275 | 0.0 | 0.0 | 0.00 | 0.01 | 0.00 | 88 | 1018.4 |
| 20260509222434 | 61 | 275 | 0.0 | 2.6 | 0.00 | 0.01 | 0.00 | 88 | 1018.2 |
| 20260509221934 | 61 | 275 | 0.0 | 2.6 | 0.00 | 0.01 | 0.00 | 87 | 1018.2 |
| 20260509221434 | 61 | 288 | 0.0 | 2.6 | 0.00 | 0.01 | 0.00 | 87 | 1018.3 |
| 20260509220938 | 61 | 220 | 0.0 | 0.9 | 0.00 | 0.01 | 0.00 | 87 | 1018.2 |
| 20260509220432 | 61 | 186 | 0.0 | 0.0 | 0.00 | 0.01 | 0.00 | 87 | 1018.1 |
| 20260509215932 | 61 | 182 | 0.0 | 0.0 | 0.00 | 0.01 | 0.01 | 87 | 1018.1 |
| 20260509215428 | 61 | 182 | 0.0 | 0.0 | 0.00 | 0.01 | 0.01 | 86 | 1018.0 |
| 20260509214929 | 62 | 182 | 0.0 | 0.0 | 0.00 | 0.01 | 0.01 | 86 | 1018.1 |
| 20260509214429 | 62 | 182 | 0.0 | 0.0 | 0.00 | 0.01 | 0.01 | 86 | 1018.0 |
| 20260509213427 | 62 | 182 | 0.0 | 0.0 | 0.00 | 0.01 | 0.01 | 87 | 1017.9 |
| 20260509212924 | 62 | 182 | 0.0 | 0.0 | 0.00 | 0.01 | 0.01 | 87 | 1017.9 |
| 20260509212424 | 62 | 182 | 0.0 | 0.0 | 0.00 | 0.01 | 0.01 | 86 | 1017.9 |
| 20260509211924 | 62 | 182 | 0.0 | 1.7 | 0.00 | 0.01 | 0.01 | 86 | 1017.7 |
| 20260509211425 | 62 | 181 | 0.0 | 1.7 | 0.00 | 0.01 | 0.01 | 86 | 1017.9 |
| 20260509210424 | 62 | 272 | 0.0 | 0.0 | 0.00 | 0.01 | 0.01 | 86 | 1018.0 |
| 20260509205924 | 62 | 272 | 0.0 | 0.0 | 0.00 | 0.01 | 0.01 | 85 | 1018.2 |
| 20260509204922 | 62 | 278 | 0.0 | 1.7 | 0.00 | 0.01 | 0.01 | 85 | 1018.1 |
| 20260509204422 | 62 | 278 | 0.0 | 1.7 | 0.00 | 0.01 | 0.01 | 85 | 1018.0 |
| 20260509203420 | 62 | 279 | 0.0 | 0.0 | 0.00 | 0.01 | 0.01 | 85 | 1018.1 |
| 20260509202920 | 62 | 280 | 0.0 | 1.7 | 0.00 | 0.01 | 0.01 | 85 | 1018.2 |
| 20260509201919 | 62 | 273 | 0.0 | 0.0 | 0.00 | 0.01 | 0.01 | 84 | 1018.3 |
| 20260509201419 | 63 | 271 | 0.9 | 3.5 | 0.00 | 0.01 | 0.01 | 84 | 1018.5 |
| 20260509200917 | 63 | 274 | 0.9 | 3.5 | 0.00 | 0.01 | 0.01 | 83 | 1018.4 |
| 20260509200416 | 63 | 278 | 0.9 | 3.5 | 0.00 | 0.01 | 0.01 | 82 | 1018.4 |
| 20260509195417 | 64 | 274 | 0.0 | 0.0 | 0.00 | 0.01 | 0.01 | 81 | 1018.4 |
| 20260509194916 | 64 | 275 | 0.0 | 0.0 | 0.00 | 0.01 | 0.01 | 81 | 1018.3 |
| 20260509193913 | 65 | 276 | 0.0 | 1.7 | 0.00 | 0.01 | 0.01 | 80 | 1018.3 |
| 20260509193410 | 65 | 280 | 0.0 | 2.6 | 0.00 | 0.01 | 0.01 | 80 | 1018.2 |
| 20260509192908 | 65 | 280 | 0.0 | 2.6 | 0.00 | 0.01 | 0.01 | 80 | 1018.2 |
| 20260509192409 | 65 | 274 | 0.0 | 0.0 | 0.00 | 0.01 | 0.01 | 80 | 1018.1 |
| 20260509191902 | 65 | 274 | 0.0 | 1.7 | 0.00 | 0.01 | 0.01 | 80 | 1018.0 |
| 20260509191358 | 66 | 275 | 0.0 | 1.7 | 0.00 | 0.01 | 0.01 | 80 | 1017.9 |
| 20260509190850 | 66 | 278 | 0.0 | 0.0 | 0.00 | 0.01 | 0.01 | 79 | 1017.9 |
| 20260509190344 | 66 | 278 | 0.0 | 0.0 | 0.00 | 0.01 | 0.01 | 79 | 1017.8 |
| 20260509185838 | 66 | 271 | 0.0 | 3.5 | 0.00 | 0.01 | 0.01 | 80 | 1017.8 |
| 20260509185334 | 66 | 257 | 0.0 | 3.5 | 0.00 | 0.01 | 0.01 | 80 | 1017.7 |
| 20260509184322 | 67 | 229 | 0.0 | 0.9 | 0.00 | 0.01 | 0.01 | 80 | 1017.6 |
| 20260509183814 | 67 | 101 | 0.0 | 0.0 | 0.00 | 0.01 | 0.01 | 79 | 1017.4 |
| 20260509183314 | 67 | 93 | 0.0 | 1.7 | 0.00 | 0.01 | 0.01 | 78 | 1017.4 |
| 20260509182812 | 68 | 92 | 0.0 | 1.7 | 0.00 | 0.01 | 0.01 | 76 | 1017.2 |
| 20260509182312 | 68 | 91 | 0.0 | 0.0 | 0.00 | 0.01 | 0.01 | 76 | 1017.1 |
| 20260509181812 | 69 | 91 | 0.0 | 0.0 | 0.00 | 0.01 | 0.01 | 76 | 1017.0 |
| 20260509181313 | 69 | 91 | 0.0 | 0.0 | 0.00 | 0.01 | 0.01 | 75 | 1016.8 |
| 20260509180825 | 69 | 91 | 0.0 | 0.0 | 0.00 | 0.01 | 0.01 | 74 | 1017.1 |
| 20260509180326 | 69 | 91 | 0.0 | 0.0 | 0.00 | 0.01 | 0.01 | 73 | 1017.1 |
| 20260509175810 | 70 | 91 | 0.0 | 0.0 | 0.00 | 0.01 | 0.01 | 73 | 1016.9 |
| 20260509174808 | 71 | 95 | 0.0 | 0.0 | 0.00 | 0.01 | 0.01 | 71 | 1017.0 |
| 20260509174307 | 72 | 98 | 0.0 | 0.0 | 0.00 | 0.01 | 0.01 | 69 | 1017.1 |
| 20260509173808 | 72 | 98 | 0.0 | 0.0 | 0.00 | 0.01 | 0.01 | 68 | 1017.0 |
| 20260509173311 | 72 | 103 | 0.0 | 0.0 | 0.00 | 0.01 | 0.01 | 67 | 1017.1 |
| 20260509172306 | 73 | 103 | 0.0 | 0.0 | 0.00 | 0.01 | 0.01 | 63 | 1017.2 |
| 20260509171804 | 73 | 103 | 0.0 | 0.0 | 0.00 | 0.01 | 0.01 | 63 | 1017.3 |
| 20260509170304 | 74 | 108 | 0.0 | 0.0 | 0.00 | 0.01 | 0.01 | 64 | 1017.3 |
| 20260509165804 | 74 | 108 | 0.0 | 0.0 | 0.00 | 0.02 | 0.01 | 64 | 1017.3 |
| 20260509165306 | 74 | 108 | 0.0 | 0.0 | 0.00 | 0.02 | 0.01 | 64 | 1017.2 |
| 20260509164806 | 74 | 108 | 0.0 | 0.0 | 0.00 | 0.02 | 0.01 | 61 | 1017.2 |
| 20260509164304 | 75 | 108 | 0.0 | 0.0 | 0.00 | 0.03 | 0.01 | 62 | 1017.1 |
| 20260509163804 | 75 | 108 | 0.0 | 0.0 | 0.00 | 0.04 | 0.01 | 61 | 1017.2 |
| 20260509163302 | 75 | 108 | 0.0 | 0.0 | 0.00 | 0.05 | 0.01 | 60 | 1017.2 |
| 20260509162800 | 76 | 108 | 0.0 | 0.0 | 0.00 | 0.05 | 0.01 | 57 | 1017.2 |
| 20260509162300 | 76 | 108 | 0.0 | 0.0 | 0.00 | 0.06 | 0.01 | 56 | 1017.2 |
| 20260509161802 | 76 | 108 | 0.0 | 0.0 | 0.00 | 0.06 | 0.01 | 55 | 1017.2 |
| 20260509161301 | 76 | 108 | 0.0 | 0.0 | 0.00 | 0.07 | 0.01 | 55 | 1017.2 |
| 20260509160802 | 76 | 108 | 0.0 | 3.5 | 0.00 | 0.08 | 0.01 | 52 | 1017.3 |
| 20260509160302 | 76 | 107 | 0.0 | 3.5 | 0.00 | 0.09 | 0.01 | 50 | 1017.3 |
| 20260509155800 | 76 | 126 | 0.0 | 1.7 | 0.00 | 0.09 | 0.01 | 52 | 1017.3 |
| 20260509154757 | 76 | 129 | 0.0 | 1.7 | 0.00 | 0.12 | 0.01 | 50 | 1017.3 |
| 20260509154257 | 76 | 129 | 0.0 | 1.7 | 0.00 | 0.13 | 0.01 | 49 | 1017.2 |
| 20260509153756 | 76 | 162 | 0.0 | 0.9 | 0.00 | 0.13 | 0.01 | 49 | 1017.4 |
| 20260509153256 | 77 | 162 | 0.0 | 0.9 | 0.00 | 0.14 | 0.01 | 48 | 1017.4 |
| 20260509152756 | 77 | 164 | 0.0 | 0.0 | 0.00 | 0.17 | 0.01 | 48 | 1017.4 |
| 20260509152257 | 77 | 167 | 0.0 | 2.6 | 0.00 | 0.19 | 0.01 | 47 | 1017.5 |
| 20260509151757 | 77 | 167 | 0.0 | 2.6 | 0.00 | 0.22 | 0.01 | 47 | 1017.5 |
| 20260509151255 | 77 | 96 | 0.0 | 0.0 | 0.00 | 0.25 | 0.01 | 48 | 1017.8 |
| 20260509150758 | 77 | 91 | 0.0 | 0.9 | 0.00 | 0.28 | 0.01 | 49 | 1017.9 |
| 20260509145755 | 77 | 91 | 0.0 | 2.6 | 0.00 | 0.33 | 0.01 | 49 | 1018.1 |